TimeEDT,TemperatureF,Dew PointF,Humidity,Sea Level PressureIn,VisibilityMPH,Wind Direction,Wind SpeedMPH,Gust SpeedMPH,PrecipitationIn,Events,Conditions,WindDirDegrees,DateUTC
12:15 AM,58.8,48.0,67,30.05,10.0,Calm,Calm,-,N/A,,Mostly Cloudy,0,2012-10-07 04:15:00
12:35 AM,58.5,47.7,67,30.05,10.0,North,3.5,-,N/A,,Mostly Cloudy,10,2012-10-07 04:35:00
12:55 AM,57.7,47.3,68,30.04,10.0,Calm,Calm,-,N/A,,Scattered Clouds,0,2012-10-07 04:55:00
1:15 AM,56.8,47.1,70,30.03,10.0,NE,4.6,-,N/A,,Scattered Clouds,40,2012-10-07 05:15:00
1:35 AM,56.5,47.3,71,30.04,10.0,Calm,Calm,-,N/A,,Scattered Clouds,0,2012-10-07 05:35:00
1:55 AM,56.1,46.9,71,30.03,10.0,North,4.6,-,N/A,,Clear,10,2012-10-07 05:55:00
2:15 AM,56.3,47.3,72,30.05,10.0,Calm,Calm,-,N/A,,Clear,0,2012-10-07 06:15:00
2:35 AM,56.7,47.7,72,30.03,10.0,NNE,3.5,-,N/A,,Scattered Clouds,20,2012-10-07 06:35:00
2:55 AM,56.7,47.7,72,30.03,10.0,Calm,Calm,-,N/A,,Mostly Cloudy,0,2012-10-07 06:55:00
3:15 AM,57.2,47.8,71,30.03,10.0,North,3.5,-,N/A,,Mostly Cloudy,10,2012-10-07 07:15:00
3:35 AM,57.6,47.8,70,30.04,10.0,NW,3.5,-,N/A,,Mostly Cloudy,310,2012-10-07 07:35:00
3:55 AM,58.3,47.3,67,30.04,10.0,North,3.5,-,N/A,,Overcast,350,2012-10-07 07:55:00
4:15 AM,56.8,48.2,73,30.06,10.0,NNW,6.9,-,N/A,,Overcast,330,2012-10-07 08:15:00
4:35 AM,56.3,50.5,81,30.08,10.0,WNW,4.6,-,N/A,,Overcast,300,2012-10-07 08:35:00
4:55 AM,53.2,51.1,92,30.08,5.0,NW,4.6,-,0.06,,Overcast,310,2012-10-07 08:55:00
5:15 AM,52.2,52.0,99,30.09,4.0,NNW,6.9,-,0.05,,Overcast,330,2012-10-07 09:15:00
5:35 AM,51.8,51.6,99,30.08,5.0,North,8.1,-,0.11,,Overcast,350,2012-10-07 09:35:00
5:55 AM,50.9,50.9,100,30.09,2.5,North,5.8,-,0.31,,Overcast,350,2012-10-07 09:55:00
6:15 AM,50.9,50.9,100,30.09,10.0,North,5.8,-,N/A,,Overcast,350,2012-10-07 10:15:00
6:35 AM,51.1,51.1,100,30.08,10.0,NNE,4.6,-,N/A,,Overcast,20,2012-10-07 10:35:00
7:15 AM,51.8,51.8,100,30.08,10.0,NE,4.6,-,N/A,,Overcast,40,2012-10-07 11:15:00
7:35 AM,52.2,52.2,100,30.08,10.0,ENE,5.8,-,N/A,,Overcast,60,2012-10-07 11:35:00
7:55 AM,52.3,52.3,100,30.09,10.0,NE,3.5,-,N/A,,Overcast,40,2012-10-07 11:55:00
8:15 AM,52.7,52.7,100,30.10,10.0,Calm,Calm,-,N/A,,Overcast,0,2012-10-07 12:15:00
8:35 AM,52.9,52.9,100,30.09,10.0,NNE,3.5,-,N/A,,Overcast,20,2012-10-07 12:35:00
8:55 AM,52.9,52.9,100,30.09,10.0,North,4.6,-,N/A,,Overcast,10,2012-10-07 12:55:00
9:15 AM,52.7,52.7,100,30.09,10.0,NNE,4.6,-,N/A,,Overcast,30,2012-10-07 13:15:00
9:35 AM,52.7,52.7,100,30.12,10.0,NNW,5.8,-,0.01,,Overcast,340,2012-10-07 13:35:00
9:55 AM,52.2,52.2,100,30.12,10.0,North,4.6,-,0.02,,Overcast,360,2012-10-07 13:55:00
10:15 AM,52.0,52.0,100,30.12,5.0,North,6.9,-,0.01,,Overcast,10,2012-10-07 14:15:00
10:35 AM,52.0,52.0,100,30.13,5.0,Calm,Calm,-,0.04,,Overcast,0,2012-10-07 14:35:00
10:55 AM,51.8,51.8,100,30.13,1.5,North,3.5,-,0.15,,Overcast,360,2012-10-07 14:55:00
11:15 AM,51.8,51.8,100,30.11,7.0,NE,4.6,-,0.01,,Overcast,50,2012-10-07 15:15:00
11:35 AM,52.0,52.0,100,30.10,7.0,NE,3.5,-,0.02,,Overcast,40,2012-10-07 15:35:00
11:55 AM,52.3,52.3,100,30.10,7.0,NNE,4.6,-,0.04,,Overcast,20,2012-10-07 15:55:00
12:15 PM,52.7,52.7,100,30.11,10.0,NNE,6.9,-,N/A,,Mostly Cloudy,20,2012-10-07 16:15:00
12:35 PM,53.1,53.1,100,30.10,10.0,NNE,6.9,-,N/A,,Overcast,30,2012-10-07 16:35:00
12:55 PM,54.0,54.0,100,30.10,10.0,North,3.5,-,N/A,,Overcast,10,2012-10-07 16:55:00
1:15 PM,55.0,54.5,98,30.08,10.0,NNE,6.9,-,N/A,,Overcast,20,2012-10-07 17:15:00
1:35 PM,55.4,54.3,96,30.08,10.0,NNE,5.8,-,N/A,,Overcast,20,2012-10-07 17:35:00
1:55 PM,55.0,53.2,94,30.07,10.0,NNE,3.5,-,N/A,,Overcast,20,2012-10-07 17:55:00
2:15 PM,55.0,53.8,96,30.06,10.0,North,3.5,-,N/A,,Overcast,360,2012-10-07 18:15:00
2:35 PM,54.9,53.1,94,30.05,10.0,NNE,6.9,-,N/A,,Overcast,30,2012-10-07 18:35:00
2:55 PM,54.9,52.9,93,30.06,10.0,North,4.6,-,N/A,,Overcast,350,2012-10-07 18:55:00
3:15 PM,54.9,52.9,93,30.05,10.0,NNE,3.5,-,N/A,,Overcast,20,2012-10-07 19:15:00
3:35 PM,55.2,52.7,91,30.05,10.0,North,5.8,-,N/A,,Overcast,10,2012-10-07 19:35:00
3:55 PM,55.0,52.3,91,30.04,10.0,North,4.6,-,N/A,,Overcast,10,2012-10-07 19:55:00
4:15 PM,55.4,52.2,89,30.04,10.0,North,5.8,-,N/A,,Overcast,360,2012-10-07 20:15:00
4:35 PM,55.4,51.8,88,30.03,10.0,North,3.5,-,N/A,,Overcast,360,2012-10-07 20:35:00
4:55 PM,55.0,51.3,87,30.04,10.0,NNE,3.5,-,N/A,,Overcast,20,2012-10-07 20:55:00
5:15 PM,54.9,51.6,89,30.05,10.0,North,3.5,-,N/A,,Overcast,350,2012-10-07 21:15:00
5:35 PM,54.9,52.0,90,30.06,10.0,North,3.5,-,N/A,,Overcast,360,2012-10-07 21:35:00
5:55 PM,54.7,52.0,91,30.06,10.0,NNW,5.8,-,N/A,,Overcast,340,2012-10-07 21:55:00
6:15 PM,54.7,52.7,93,30.07,10.0,NW,4.6,-,N/A,,Overcast,310,2012-10-07 22:15:00
6:35 PM,54.5,52.5,93,30.09,10.0,NW,4.6,-,N/A,,Overcast,310,2012-10-07 22:35:00
6:55 PM,53.6,50.9,91,30.11,7.0,NW,5.8,-,N/A,,Overcast,310,2012-10-07 22:55:00
7:15 PM,52.2,52.2,100,30.11,2.0,NW,4.6,-,N/A,,Overcast,320,2012-10-07 23:15:00
7:35 PM,51.8,51.8,100,30.13,3.0,NW,5.8,-,N/A,,Overcast,310,2012-10-07 23:35:00
7:55 PM,52.0,52.0,100,30.14,7.0,NW,9.2,17.3,N/A,,Overcast,320,2012-10-07 23:55:00
8:15 PM,52.0,52.0,100,30.15,3.0,NW,5.8,-,N/A,,Overcast,320,2012-10-08 00:15:00
8:35 PM,51.8,51.8,100,30.16,3.0,NNW,4.6,-,N/A,,Overcast,330,2012-10-08 00:35:00
8:55 PM,51.8,51.8,100,30.16,10.0,NW,3.5,-,N/A,,Overcast,320,2012-10-08 00:55:00
9:15 PM,51.3,51.3,100,30.15,10.0,North,3.5,-,N/A,,Overcast,350,2012-10-08 01:15:00
9:35 PM,51.3,51.3,100,30.15,10.0,NW,4.6,-,N/A,,Overcast,310,2012-10-08 01:35:00
9:55 PM,51.4,51.4,100,30.16,10.0,NNW,3.5,-,N/A,,Overcast,340,2012-10-08 01:55:00
10:15 PM,51.4,51.4,100,30.17,10.0,NW,3.5,-,N/A,,Overcast,320,2012-10-08 02:15:00
10:35 PM,51.4,51.4,100,30.17,10.0,North,3.5,-,N/A,,Overcast,360,2012-10-08 02:35:00
10:55 PM,51.8,51.8,100,30.17,10.0,NNW,4.6,-,N/A,,Overcast,340,2012-10-08 02:55:00
11:15 PM,51.6,51.6,100,30.17,10.0,NNW,4.6,-,N/A,,Overcast,330,2012-10-08 03:15:00
11:35 PM,51.4,51.4,100,30.17,10.0,NNW,3.5,-,N/A,,Overcast,340,2012-10-08 03:35:00
11:55 PM,51.4,51.4,100,30.18,10.0,North,3.5,-,N/A,,Overcast,350,2012-10-08 03:55:00